Weather History for Budapest / Lorinc, Hungary

Change the Weather History Date:

Sunday, January 19, 2014

  Actual Average Record
Temperature  
Mean Temperature 42 °F -  
Max Temperature 47 °F 38 °F - ()
Min Temperature 38 °F 28 °F - ()
Degree Days  
Heating Degree Days 22    
Moisture  
Dew Point 43 °F    
Average Humidity 92    
Maximum Humidity 99    
Minimum Humidity 86    
Precipitation  
Precipitation 0.04 in 0.04 in - ()
Sea Level Pressure  
Sea Level Pressure 29.81 in    
Wind  
Wind Speed 4 mph ()    
Max Wind Speed 9 mph    
Max Gust Speed -    
Visibility 3.8 miles    
Events Fog , Rain    
T = Trace of Precipitation, MM = Missing Value Source: Averaged Metar Reports

Daily Weather History Graph

Daily Weather History Graph

Search for Another Location

Airport:

Trip Planner

Search our weather history database for the weather conditions in past years. The results will help you decide how hot, cold, wet, or windy it might be!

Date:

Astronomy

Jan. 19, 2014 Rise Set
Actual Time 7:23 AM CET 4:24 PM CET
Civil Twilight 6:49 AM CET 4:59 PM CET
Nautical Twilight 6:11 AM CET 5:37 PM CET
Astronomical Twilight 5:34 AM CET 6:13 PM CET
Moon 8:03 PM CET (1/19) 8:29 AM CET (1/19)
Length of Visible Light 10h 10m
Length of Day
9h 01m
Waning Gibbous, 91% of the Moon is Illuminated
Jan 19
Waning Gibbous
Jan 24
Last Quarter
Jan 30
New
Feb 6
First Quarter
Feb 15
Full

Hourly Weather History & Observations

Time (CET) Temp. Dew Point Humidity Pressure Visibility Wind Dir Wind Speed Gust Speed Precip Events Conditions
12:00 AM 46 °F 44 °F 90% 29.86 in 4 mi NNE 4.5 mph - -   Partly Cloudy
1:00 AM 46 °F 44 °F 89% 29.86 in 4 mi NNE 2.2 mph - -   Partly Cloudy
2:00 AM 45 °F 43 °F 92% 29.86 in 2 mi North 2.2 mph - -   Mist
3:00 AM 45 °F 43 °F 90% 29.86 in 2 mi NE 4.5 mph - -   Mist
4:00 AM 43 °F 42 °F 93% 29.85 in 2 mi NE 2.2 mph - -   Mist
5:00 AM 41 °F 40 °F 94% 29.85 in 0 mi NE 2.2 mph - - Fog Partial Fog
6:00 AM 39 °F 38 °F 95% 29.84 in 0 mi East 4.5 mph - - Fog Partial Fog
7:00 AM 40 °F 39 °F 96% 29.84 in 0 mi NNE 4.5 mph - - Fog Heavy Fog
8:00 AM 40 °F 40 °F 99% 29.83 in 1 mi NE 4.5 mph - - Fog Light Fog
9:00 AM 41 °F 40 °F 95% 29.83 in 1 mi NNE 4.5 mph - -   Mist
10:00 AM 42 °F 42 °F 98% 29.84 in 3 mi NE 2.2 mph - -   Mist
11:00 AM 44 °F 43 °F 95% 29.83 in 4 mi NE 2.2 mph - -   Partly Cloudy
12:00 PM 45 °F 43 °F 92% 29.82 in 4 mi North 2.2 mph - - Rain Light Rain
1:00 PM 45 °F 44 °F 93% 29.79 in 2 mi NE 4.5 mph - - Rain Light Rain
2:00 PM 46 °F 45 °F 95% 29.78 in 4 mi NNE 2.2 mph - - Rain Light Rain
3:00 PM 46 °F 45 °F 94% 29.77 in 4 mi NNE 4.5 mph - -   Partly Cloudy
4:00 PM 45 °F 43 °F 91% 29.78 in 5 mi ENE 6.7 mph - -   Partly Cloudy
5:00 PM 46 °F 44 °F 88% 29.78 in 6 mi East 6.7 mph - -   Partly Cloudy
6:00 PM 47 °F 44 °F 87% 29.77 in 6 mi East 8.9 mph - -   Partly Cloudy
7:00 PM 47 °F 44 °F 86% 29.75 in 7 mi ENE 6.7 mph - -   Partly Cloudy
8:00 PM 47 °F 44 °F 87% 29.74 in 7 mi ENE 6.7 mph - -   Partly Cloudy
9:00 PM 47 °F 44 °F 86% 29.75 in 7 mi NNW 4.5 mph - -   Partly Cloudy
10:00 PM 46 °F 44 °F 90% 29.73 in 8 mi NNE 4.5 mph - - Rain Light Rain
11:00 PM 46 °F 44 °F 92% 29.72 in 8 mi NNE 4.5 mph - - Rain Light Rain